Flag for Isle of Man Weather past 2 weeks in Douglas, Isle of Man

Now
63 °F

Sunny.


Feels Like: 63 °F
Forecast: 56 / 65 °F
Wind: 3 mph from North

Location: Isle Of Man / Ronaldsway Airport

Current Time: Jul 1, 2015 at 9:02:14 PM

Latest Report: Jul 1, 2015 at 8:20 PM


Visibility: 10 mi

Pressure: 29.83 "Hg

Humidity: 83%

Dew point: 57 °F

Location of DouglasLocation

Historic Weather in Douglas — Graph

°F

Douglas temperature yesterday

Maximum temperature yesterday: 72 °F (at 5:20 PM)
Minimum temperature yesterday: 57 °F (at 12:50 AM)
Average temperature yesterday: 63 °F

Past Weeks' High & Low Weather Summary

 TemperatureHumidityPressure
High72 °F (Jun 30, 5:20 PM)100% (Jun 17, 10:20 AM)30.21 "Hg (Jun 17, 10:20 AM)
Low50 °F (Jun 22, 2:50 AM)52% (Jun 22, 2:20 PM)29.77 "Hg (Jul 1, 8:50 AM)
Average57 °F83%30.02 "Hg
* Reported Jun 16 7:20 PM — Jul 1 7:50 PM, Douglas, Weather by CustomWeather, © 2015

Note: Actual official high and low records may vary slightly from our data, if they occured in-between our weather recording intervals... More about our weather records

Advertising

Douglas weather history for previous 24 hours

 ConditionsComfort  
Time TempWeatherWind HumidityBarometerVisibility
7:50 PM
Wed, Jul 1
63 °FPassing clouds.6 mph83%29.83 "HgN/A
7:20 PM61 °FPassing clouds.7 mph83%29.83 "HgN/A
6:50 PM63 °FPassing clouds.7 mph83%29.80 "HgN/A
6:20 PM63 °FPassing clouds.7 mph77%29.80 "HgN/A
5:50 PM64 °FPassing clouds.5 mph78%29.80 "HgN/A
5:20 PM68 °FPassing clouds.6 mph69%29.80 "HgN/A
4:50 PM68 °FSunny.8 mph73%29.77 "Hg10 mi
4:20 PM66 °FSunny.3 mph68%29.80 "Hg10 mi
3:50 PM64 °FSunny.6 mph73%29.80 "Hg10 mi
3:20 PM64 °FPassing clouds.8 mph73%29.80 "HgN/A
2:50 PM64 °FPassing clouds.5 mph73%29.80 "HgN/A
2:20 PM66 °FSprinkles. Clear.9 mph73%29.80 "HgN/A
1:50 PM66 °FSunny.5 mph73%29.80 "Hg10 mi
1:20 PM64 °FSunny.3 mph73%29.80 "Hg10 mi
12:50 PM64 °FSunny.9 mph73%29.80 "Hg10 mi
12:20 PM68 °FSunny.12 mph64%29.77 "Hg10 mi
11:50 AM68 °FPassing clouds.9 mph69%29.80 "HgN/A
11:20 AM64 °FSunny.10 mph73%29.77 "Hg10 mi
10:50 AM66 °FSunny.10 mph68%29.80 "Hg10 mi
10:20 AM66 °FSunny.12 mph73%29.80 "Hg10 mi
9:50 AM66 °FSunny.12 mph68%29.80 "Hg10 mi
9:20 AM66 °FSunny.15 mph68%29.80 "Hg10 mi
8:50 AM66 °FSunny.16 mph68%29.77 "Hg10 mi
8:20 AM64 °FSunny.17 mph73%29.80 "Hg10 mi
7:50 AM66 °FSunny.15 mph68%29.80 "Hg10 mi
12:50 AM66 °FClear.9 mph73%29.89 "Hg10 mi
11:50 PM
Tue, Jun 30
64 °FPassing clouds.8 mph83%29.89 "HgN/A
10:50 PM64 °FPassing clouds.9 mph83%29.89 "HgN/A
9:50 PM63 °FSunny.10 mph83%29.89 "Hg10 mi
Weather by CustomWeather, © 2015

See weather overviewHow to use our weather pages